Time,TemperatureF,DewpointF,PressureIn,WindDirection,WindDirectionDegrees,WindSpeedMPH,WindSpeedGustMPH,Humidity,HourlyPrecipIn,Conditions,Clouds,dailyrainin,SolarRadiationWatts/m^2,SoftwareType,DateUTC
2013-02-17 00:02:00,22.0,9.0,-100.00,West,260,5.0,15.0,56,0.00,,,0.00,0.000000,,2013-02-17 05:02:00,
2013-02-17 00:33:00,22.0,6.0,-100.00,WNW,282,7.0,15.0,50,0.00,,,0.00,0.000000,,2013-02-17 05:33:00,
2013-02-17 00:42:00,22.0,6.0,-100.00,WNW,282,7.0,15.0,50,0.00,,,0.00,0.000000,,2013-02-17 05:42:00,
2013-02-17 00:52:00,22.0,6.0,-100.00,WNW,282,7.0,15.0,50,0.00,,,0.00,0.000000,,2013-02-17 05:52:00,
2013-02-17 01:02:00,22.0,6.0,-100.00,WNW,282,7.0,15.0,50,0.00,,,0.00,0.000000,,2013-02-17 06:02:00,
2013-02-17 01:32:00,21.0,3.0,-100.00,WNW,297,5.0,14.0,45,0.00,,,0.00,0.000000,,2013-02-17 06:32:00,
2013-02-17 01:42:00,21.0,3.0,-100.00,WNW,297,5.0,14.0,45,0.00,,,0.00,0.000000,,2013-02-17 06:42:00,
2013-02-17 01:52:00,21.0,3.0,-100.00,WNW,297,5.0,14.0,45,0.00,,,0.00,0.000000,,2013-02-17 06:52:00,
2013-02-17 02:01:00,21.0,3.0,-100.00,WNW,297,5.0,14.0,45,0.00,,,0.00,0.000000,,2013-02-17 07:01:00,
2013-02-17 02:32:00,20.0,1.0,-100.00,West,270,5.0,16.0,43,0.00,,,0.00,0.000000,,2013-02-17 07:32:00,
2013-02-17 02:42:00,20.0,1.0,-100.00,West,270,5.0,16.0,43,0.00,,,0.00,0.000000,,2013-02-17 07:42:00,
2013-02-17 02:52:00,20.0,1.0,-100.00,West,270,5.0,16.0,43,0.00,,,0.00,0.000000,,2013-02-17 07:52:00,
2013-02-17 03:01:00,20.0,1.0,-100.00,West,270,5.0,16.0,43,0.00,,,0.00,0.000000,,2013-02-17 08:01:00,
2013-02-17 03:32:00,20.0,2.0,-100.00,NNW,328,4.0,15.0,44,0.00,,,0.00,0.000000,,2013-02-17 08:32:00,
2013-02-17 03:42:00,20.0,2.0,-100.00,NNW,328,4.0,15.0,44,0.00,,,0.00,0.000000,,2013-02-17 08:42:00,
2013-02-17 03:52:00,20.0,2.0,-100.00,NNW,328,4.0,15.0,44,0.00,,,0.00,0.000000,,2013-02-17 08:52:00,
2013-02-17 04:02:00,20.0,2.0,-100.00,NNW,328,4.0,15.0,44,0.00,,,0.00,0.000000,,2013-02-17 09:02:00,
2013-02-17 04:32:00,20.0,3.0,-100.00,NW,314,9.0,17.0,46,0.00,,,-99.99,0.000000,,2013-02-17 09:32:00,
2013-02-17 04:42:00,20.0,3.0,-100.00,NW,314,9.0,17.0,46,0.00,,,-99.99,0.000000,,2013-02-17 09:42:00,
2013-02-17 04:52:00,20.0,3.0,-100.00,NW,314,9.0,17.0,46,0.00,,,-99.99,0.000000,,2013-02-17 09:52:00,
2013-02-17 05:01:00,20.0,3.0,-100.00,NW,314,9.0,17.0,46,0.00,,,-99.99,0.000000,,2013-02-17 10:01:00,
2013-02-17 05:32:00,20.0,4.0,-100.00,West,269,4.0,16.0,48,0.00,,,0.00,0.000000,,2013-02-17 10:32:00,
2013-02-17 05:42:00,20.0,4.0,-100.00,West,269,4.0,16.0,48,0.00,,,0.00,0.000000,,2013-02-17 10:42:00,
2013-02-17 05:52:00,20.0,4.0,-100.00,West,269,4.0,16.0,48,0.00,,,0.00,0.000000,,2013-02-17 10:52:00,
2013-02-17 06:01:00,20.0,4.0,-100.00,West,269,4.0,16.0,48,0.00,,,0.00,0.000000,,2013-02-17 11:01:00,
2013-02-17 06:32:00,20.0,5.0,-100.00,WSW,258,4.0,12.0,51,0.00,,,0.00,0.000000,,2013-02-17 11:32:00,
2013-02-17 06:42:00,20.0,5.0,-100.00,WSW,258,4.0,12.0,51,0.00,,,0.00,0.000000,,2013-02-17 11:42:00,
2013-02-17 06:53:00,20.0,5.0,-100.00,WSW,258,4.0,12.0,51,0.00,,,0.00,0.000000,,2013-02-17 11:53:00,
2013-02-17 07:03:00,20.0,5.0,-100.00,WSW,258,4.0,12.0,51,0.00,,,0.00,0.000000,,2013-02-17 12:03:00,
2013-02-17 07:32:00,19.0,5.0,-100.00,West,270,5.0,16.0,53,0.00,,,0.00,0.000000,,2013-02-17 12:32:00,
2013-02-17 07:42:00,19.0,5.0,-100.00,West,270,5.0,16.0,53,0.00,,,0.00,0.000000,,2013-02-17 12:42:00,
2013-02-17 07:52:00,19.0,5.0,-100.00,West,270,5.0,16.0,53,0.00,,,0.00,0.000000,,2013-02-17 12:52:00,
2013-02-17 08:02:00,19.0,5.0,-100.00,West,270,5.0,16.0,53,0.00,,,0.00,0.000000,,2013-02-17 13:02:00,
2013-02-17 09:32:00,25.0,6.0,-100.00,NW,304,4.0,14.0,44,-99.99,,,0.00,275.000000,,2013-02-17 14:32:00,
2013-02-17 09:42:00,25.0,6.0,-100.00,NW,304,4.0,14.0,44,-99.99,,,0.00,275.000000,,2013-02-17 14:42:00,
2013-02-17 09:53:00,25.0,6.0,-100.00,NW,304,4.0,14.0,44,-99.99,,,0.00,275.000000,,2013-02-17 14:53:00,
2013-02-17 10:02:00,25.0,6.0,-100.00,NW,304,4.0,14.0,44,-99.99,,,0.00,275.000000,,2013-02-17 15:02:00,
2013-02-17 10:32:00,27.0,5.0,-100.00,WNW,299,5.0,16.0,39,0.00,,,0.00,490.000000,,2013-02-17 15:32:00,
2013-02-17 10:42:00,27.0,5.0,-100.00,WNW,299,5.0,16.0,39,0.00,,,0.00,490.000000,,2013-02-17 15:42:00,
2013-02-17 10:52:00,27.0,5.0,-100.00,WNW,299,5.0,16.0,39,0.00,,,0.00,490.000000,,2013-02-17 15:52:00,
2013-02-17 11:01:00,27.0,5.0,-100.00,WNW,299,5.0,16.0,39,0.00,,,0.00,490.000000,,2013-02-17 16:01:00,
2013-02-17 11:32:00,29.0,6.0,-100.00,North,355,9.0,18.0,37,0.00,,,0.00,679.000000,,2013-02-17 16:32:00,
2013-02-17 11:42:00,29.0,6.0,-100.00,North,355,9.0,18.0,37,0.00,,,0.00,679.000000,,2013-02-17 16:42:00,
2013-02-17 11:52:00,29.0,6.0,-100.00,North,355,9.0,18.0,37,0.00,,,0.00,679.000000,,2013-02-17 16:52:00,
2013-02-17 12:02:00,29.0,6.0,-100.00,North,355,9.0,18.0,37,0.00,,,0.00,679.000000,,2013-02-17 17:02:00,
2013-02-17 12:32:00,32.0,6.0,-100.00,WNW,295,6.0,19.0,32,0.00,,,0.00,804.000000,,2013-02-17 17:32:00,
2013-02-17 12:42:00,32.0,6.0,-100.00,WNW,295,6.0,19.0,32,0.00,,,0.00,804.000000,,2013-02-17 17:42:00,
2013-02-17 12:52:00,32.0,6.0,-100.00,WNW,295,6.0,19.0,32,0.00,,,0.00,804.000000,,2013-02-17 17:52:00,
2013-02-17 13:02:00,32.0,6.0,-100.00,WNW,295,6.0,19.0,32,0.00,,,0.00,804.000000,,2013-02-17 18:02:00,
2013-02-17 13:33:00,33.0,6.0,-100.00,West,281,10.0,21.0,31,0.00,,,0.00,854.000000,,2013-02-17 18:33:00,
2013-02-17 13:42:00,33.0,6.0,-100.00,West,281,10.0,21.0,31,0.00,,,0.00,854.000000,,2013-02-17 18:42:00,
2013-02-17 13:52:00,33.0,6.0,-100.00,West,281,10.0,21.0,31,0.00,,,0.00,854.000000,,2013-02-17 18:52:00,
2013-02-17 14:02:00,33.0,6.0,-100.00,West,281,10.0,21.0,31,0.00,,,0.00,854.000000,,2013-02-17 19:02:00,
2013-02-17 14:32:00,33.0,3.0,-100.00,WNW,295,11.0,26.0,27,0.00,,,0.00,829.000000,,2013-02-17 19:32:00,
2013-02-17 14:42:00,33.0,3.0,-100.00,WNW,295,11.0,26.0,27,0.00,,,0.00,829.000000,,2013-02-17 19:42:00,
2013-02-17 14:52:00,33.0,3.0,-100.00,WNW,295,11.0,26.0,27,0.00,,,0.00,829.000000,,2013-02-17 19:52:00,
2013-02-17 15:32:00,36.0,4.0,-100.00,NNW,332,7.0,24.0,25,0.00,,,0.00,733.000000,,2013-02-17 20:32:00,
2013-02-17 15:43:00,36.0,4.0,-100.00,NNW,332,7.0,24.0,25,0.00,,,0.00,733.000000,,2013-02-17 20:43:00,
2013-02-17 15:52:00,36.0,4.0,-100.00,NNW,332,7.0,24.0,25,0.00,,,0.00,733.000000,,2013-02-17 20:52:00,
2013-02-17 16:02:00,36.0,4.0,-100.00,NNW,332,7.0,24.0,25,0.00,,,0.00,733.000000,,2013-02-17 21:02:00,
2013-02-17 16:32:00,37.0,5.0,-100.00,NW,312,5.0,16.0,26,0.00,,,0.00,573.000000,,2013-02-17 21:32:00,
2013-02-17 16:42:00,37.0,5.0,-100.00,NW,312,5.0,16.0,26,0.00,,,0.00,573.000000,,2013-02-17 21:42:00,
2013-02-17 16:53:00,37.0,5.0,-100.00,NW,312,5.0,16.0,26,0.00,,,0.00,573.000000,,2013-02-17 21:53:00,
2013-02-17 17:01:00,37.0,5.0,-100.00,NW,312,5.0,16.0,26,0.00,,,0.00,573.000000,,2013-02-17 22:01:00,
2013-02-17 17:32:00,36.0,7.0,-100.00,West,278,6.0,17.0,29,0.00,,,0.00,366.000000,,2013-02-17 22:32:00,
2013-02-17 17:42:00,36.0,7.0,-100.00,West,278,6.0,17.0,29,0.00,,,0.00,366.000000,,2013-02-17 22:42:00,
2013-02-17 17:52:00,36.0,7.0,-100.00,West,278,6.0,17.0,29,0.00,,,0.00,366.000000,,2013-02-17 22:52:00,
2013-02-17 18:02:00,36.0,7.0,-100.00,West,278,6.0,17.0,29,0.00,,,0.00,366.000000,,2013-02-17 23:02:00,
2013-02-17 18:32:00,33.0,6.0,-100.00,WNW,290,4.0,12.0,32,0.00,,,0.00,111.000000,,2013-02-17 23:32:00,
2013-02-17 18:42:00,33.0,6.0,-100.00,WNW,290,4.0,12.0,32,0.00,,,0.00,111.000000,,2013-02-17 23:42:00,
2013-02-17 18:52:00,33.0,6.0,-100.00,WNW,290,4.0,12.0,32,0.00,,,0.00,111.000000,,2013-02-17 23:52:00,
2013-02-17 19:02:00,33.0,6.0,-100.00,WNW,290,4.0,12.0,32,0.00,,,0.00,111.000000,,2013-02-18 00:02:00,
2013-02-17 19:32:00,29.0,8.0,-100.00,NW,319,0.0,9.0,40,0.00,,,0.00,3.000000,,2013-02-18 00:32:00,
2013-02-17 19:42:00,29.0,8.0,-100.00,NW,319,0.0,9.0,40,0.00,,,0.00,3.000000,,2013-02-18 00:42:00,
2013-02-17 19:52:00,29.0,8.0,-100.00,NW,319,0.0,9.0,40,0.00,,,0.00,3.000000,,2013-02-18 00:52:00,
2013-02-17 20:01:00,29.0,8.0,-100.00,NW,319,0.0,9.0,40,0.00,,,0.00,3.000000,,2013-02-18 01:01:00,
2013-02-17 21:32:00,26.0,12.0,-100.00,ENE,60,0.0,0.0,55,-99.99,,,0.00,0.000000,,2013-02-18 02:32:00,
2013-02-17 21:42:00,26.0,12.0,-100.00,ENE,60,0.0,0.0,55,-99.99,,,0.00,0.000000,,2013-02-18 02:42:00,
2013-02-17 21:52:00,26.0,12.0,-100.00,ENE,60,0.0,0.0,55,-99.99,,,0.00,0.000000,,2013-02-18 02:52:00,
2013-02-17 22:02:00,26.0,12.0,-100.00,ENE,60,0.0,0.0,55,-99.99,,,0.00,0.000000,,2013-02-18 03:02:00,
2013-02-17 22:32:00,24.0,13.0,-100.00,North,10,0.0,0.0,61,0.00,,,0.00,0.000000,,2013-02-18 03:32:00,
2013-02-17 22:42:00,24.0,13.0,-100.00,North,10,0.0,0.0,61,0.00,,,0.00,0.000000,,2013-02-18 03:42:00,
2013-02-17 22:52:00,24.0,13.0,-100.00,North,10,0.0,0.0,61,0.00,,,0.00,0.000000,,2013-02-18 03:52:00,
2013-02-17 23:01:00,24.0,13.0,-100.00,North,10,0.0,0.0,61,0.00,,,0.00,0.000000,,2013-02-18 04:01:00,
2013-02-17 23:32:00,23.0,12.0,-100.00,NNE,20,0.0,0.0,63,0.00,,,0.00,0.000000,,2013-02-18 04:32:00,
2013-02-17 23:42:00,23.0,12.0,-100.00,NNE,20,0.0,0.0,63,0.00,,,0.00,0.000000,,2013-02-18 04:42:00,
2013-02-17 23:52:00,23.0,12.0,-100.00,NNE,20,0.0,0.0,63,0.00,,,0.00,0.000000,,2013-02-18 04:52:00,